This is the latest recevied weather packets stored in our database for station/object SP6RGZ-1. If no packets are shown the sender has not sent any weather packets the latest 10 day(s).
| Time | Temp. | Humidity | Pressure | Rain* | Wind** | Luminosity | Snow |
|---|---|---|---|---|---|---|---|
| 1787835602 | 27.22° C | 39% | 1001 hPa | - | - | - | - |
| 1787834702 | 26.67° C | 38% | 1001 hPa | - | - | - | - |
| 1787833802 | 26.67° C | 39% | 1001.1 hPa | - | - | - | - |
| 1787832902 | 27.22° C | 40% | 1001.3 hPa | - | - | - | - |
| 1787832002 | 27.22° C | 38% | 1001.6 hPa | - | - | - | - |
| 1787831103 | 27.22° C | 38% | 1001.7 hPa | - | - | - | - |
| 1787830202 | 27.22° C | 40% | 1001.8 hPa | - | - | - | - |
| 1787829302 | 26.67° C | 40% | 1001.9 hPa | - | - | - | - |
| 1787828402 | 27.22° C | 40% | 1001.9 hPa | - | - | - | - |
| 1787827502 | 26.67° C | 40% | 1002 hPa | - | - | - | - |
| 1787826602 | 26.67° C | 41% | 1002 hPa | - | - | - | - |
| 1787825702 | 26.67° C | 41% | 1002.1 hPa | - | - | - | - |
| 1787824802 | 26.11° C | 42% | 1002.2 hPa | - | - | - | - |
| 1787823902 | 26.11° C | 44% | 1002.2 hPa | - | - | - | - |
| 1787823002 | 26.11° C | 43% | 1002.3 hPa | - | - | - | - |
| 1787822102 | 25.56° C | 44% | 1002.2 hPa | - | - | - | - |
| 1787821202 | 25° C | 46% | 1002.4 hPa | - | - | - | - |
| 1787820302 | 25° C | 49% | 1002.5 hPa | - | - | - | - |
| 1787819402 | 24.44° C | 52% | 1002.5 hPa | - | - | - | - |
| 1787818502 | 23.33° C | 55% | 1002.5 hPa | - | - | - | - |
| 1787817602 | 22.78° C | 57% | 1002.6 hPa | - | - | - | - |
| 1787816702 | 22.78° C | 58% | 1002.4 hPa | - | - | - | - |
| 1787815802 | 21.67° C | 60% | 1002.4 hPa | - | - | - | - |
| 1787814902 | 21.67° C | 61% | 1002.3 hPa | - | - | - | - |
| 1787814002 | 21.11° C | 62% | 1002.3 hPa | - | - | - | - |
* Rain since midnight (hover to see other rain measurements)
** Current wind speed in m/s (hover to see current wind gust speed)